Temperature
16 16 16 16 16 16 16 16 16 16 16 16 16 16 16 16 16 16 16 16 16 15 16 16 16 16 16 16 16 16 16 16 16 16 16 16 16 16 16 16 16 16 17
16 16 16 16 16 16 16 16 16 16 16 16 16 16 16 16 15 15 15 15 15 15 15 15 15 15 16 16 16 16 16 16 16 16 16 16 16 16 16 16 16 16 16
16 16 16 16 16 16 16 16 16 16 16 16 15 15 15 15 15 15 15 15 15 15 15 15 15 15 15 15 15 15 15 15 15 15 15 16 16 16 16 16 16 16 16
16 16 16 16 16 16 16 16 16 16 15 15 15 15 15 15 15 15 15 15 15 15 15 15 15 15 15 15 15 15 15 15 15 15 15 15 15 15 16 16 16 16 16
16 16 16 16 16 16 16 16 15 15 15 15 15 15 15 15 15 15 15 15 15 15 15 15 15 15 15 15 15 15 15 15 15 15 15 15 15 15 15 15 15 15 16
16 16 16 16 16 16 15 15 15 15 15 15 15 15 15 15 15 15 15 15 14 14 14 14 14 14 14 15 15 15 15 14 15 15 15 15 15 15 15 15 15 15 15
16 16 16 16 16 15 15 15 15 15 15 15 15 15 15 15 15 14 14 14 14 14 14 14 14 14 14 14 14 14 14 14 14 14 14 14 14 15 15 15 15 15 15
15 15 15 15 15 15 15 15 15 15 15 15 15 15 14 14 14 14 14 14 14 14 14 14 14 14 14 14 14 14 14 14 14 14 14 14 14 14 14 14 14 14 14
15 15 15 15 15 15 15 15 15 15 15 15 15 15 15 14 14 14 14 14 14 14 14 14 14 14 14 13 14 14 14 14 14 14 14 14 14 14 14 14 14 14 14
15 15 15 15 15 15 15 15 15 15 15 15 15 15 15 15 14 14 14 14 14 14 14 13 13 13 13 13 13 13 13 14 14 14 13 13 13 13 13 13 13 13 13
15 15 15 15 15 15 15 15 15 15 15 15 15 15 15 15 14 14 14 14 14 13 13 13 13 13 13 13 13 13 13 13 13 13 13 13 13 13 13 13 13 13 13
15 15 15 15 15 15 15 15 15 15 15 15 15 14 14 14 14 14 14 14 13 13 13 13 13 13 13 13 13 13 13 13 13 13 13 13 13 13 13 13 13 13 13
15 15 15 15 15 15 15 15 15 15 15 15 14 14 14 14 14 14 14 14 13 13 13 13 13 12 13 13 13 13 13 13 13 13 13 13 13 13 13 13 13 13 13
15 15 15 15 15 15 15 15 15 15 14 14 14 14 14 14 14 14 14 14 13 13 13 13 12 12 12 12 12 12 12 12 12 12 12 12 12 12 12 12 12 12 12
15 15 15 15 15 15 15 15 14 14 14 14 14 14 14 14 14 14 14 14 13 13 13 13 12 12 12 12 12 12 12 12 12 12 12 12 12 12 12 12 12 12 12
15 15 15 15 15 15 14 14 14 14 14 14 14 14 14 14 14 14 13 13 13 13 13 12 12 12 12 12 12 12 12 12 12 12 12 12 12 12 12 12 12 12 12
15 15 15 15 15 14 14 14 14 14 14 14 14 14 14 13 13 13 13 13 13 13 13 12 12 12 12 11 11 11 11 11 11 11 11 11 11 11 11 11 11 11 11
15 15 15 15 14 14 14 14 14 14 14 14 14 13 13 13 13 13 13 13 13 12 12 12 12 12 12 11 11 11 11 11 11 11 11 11 11 11 11 11 11 11 11
15 15 14 14 14 14 14 14 14 14 14 14 13 13 13 13 13 13 13 13 12 12 12 12 12 11 11 11 11 11 11 11 11 11 11 11 11 11 11 11 11 11 10
15 14 14 14 14 14 14 14 14 14 13 13 13 13 13 13 13 13 13 12 12 12 12 12 11 11 11 11 11 11 11 11 11 11 11 10 10 10 10 10 10 10 10
14 14 14 14 14 14 14 14 14 14 13 13 13 13 13 13 13 12 12 12 12 12 12 11 11 11 11 11 10 10 10 10 10 10 10 10 10 10 10 10 10 10 9
14 14 14 14 14 14 14 14 13 13 13 13 13 13 13 12 12 12 12 12 12 12 11 11 11 11 10 10 10 10 10 10 10 10 10 10 10 9 9 9 9 9 9
14 14 14 14 14 14 13 13 13 13 13 13 13 12 12 12 12 12 12 12 11 11 11 11 10 10 10 10 10 10 9 9 9 9 9 9 9 9 9 9 9 9 9
14 14 14 14 13 13 13 13 13 13 13 13 12 12 12 12 12 12 11 11 11 11 10 10 10 10 9 9 9 9 9 9 9 9 9 9 9 9 9 8 8 8 8
14 14 13 13 13 13 13 13 13 13 13 12 12 12 12 12 11 11 11 11 11 10 10 10 10 9 9 9 9 9 9 9 9 9 8 8 8 8 8 8 8 8 7
14 13 13 13 13 13 13 12 12 12 12 12 12 12 11 11 11 11 11 10 10 10 10 9 9 9 9 9 9 8 8 8 8 8 7 7 7 7 7 7 7 7 7
Wind_Speed
2 2 3 4 4 4 4 4 4 5 5 6 6 6 6 6 7 7 8 10 10 10 10 9 8 6 6 6 6 6 6 6 5 5 5 6 6 6 6 6 6 6 6
3 3 3 3 3 4 5 5 5 4 4 5 5 6 6 6 7 8 8 9 10 11 11 10 9 8 7 6 6 6 6 7 7 6 6 5 6 6 6 7 7 7 7
4 4 3 2 3 5 6 6 6 5 4 4 4 5 5 6 7 7 8 8 9 11 12 11 11 10 9 8 7 7 7 7 7 7 7 6 6 6 7 7 7 8 8
5 5 3 3 4 5 5 4 3 4 4 4 4 4 4 5 6 7 8 9 9 9 11 12 12 12 12 11 10 8 7 7 7 7 7 7 6 7 6 7 7 8 8
6 6 4 4 5 5 4 3 4 3 4 4 4 4 4 4 5 7 7 8 9 9 9 11 13 13 13 12 11 9 8 7 7 7 7 7 7 7 7 7 7 8 8
6 6 5 5 5 4 4 4 4 4 3 3 5 5 5 5 5 5 5 7 8 9 9 9 10 11 13 13 12 10 9 8 8 8 8 8 8 8 7 7 8 8 8
6 6 4 4 4 4 4 4 4 5 3 2 3 4 4 5 6 5 5 5 7 8 9 9 9 9 9 12 12 11 10 9 8 8 8 7 8 8 8 8 8 9 9
5 5 5 3 3 4 4 3 3 3 2 3 3 3 3 4 4 5 4 5 5 7 7 8 8 8 9 9 10 11 10 9 8 8 8 8 8 7 7 8 9 9 9
5 5 5 4 3 3 3 3 3 4 2 2 3 3 3 1 2 3 4 4 4 4 5 6 7 8 8 9 9 10 11 10 9 9 8 8 8 7 8 8 8 9 9
4 4 5 5 4 3 3 2 2 2 3 2 2 2 2 3 2 1 3 4 4 5 5 5 6 7 8 8 9 9 10 10 9 9 9 8 8 8 8 8 8 8 8
4 4 4 4 4 3 3 3 3 3 2 2 2 1 2 2 2 2 0 2 3 3 4 4 5 6 8 8 8 8 10 10 10 9 9 9 8 8 8 8 8 8 8
2 3 4 4 3 3 3 3 3 3 3 3 2 2 2 2 1 2 1 0 1 2 3 4 5 6 7 7 7 8 9 9 9 9 9 9 9 8 8 8 8 8 8
1 1 2 2 3 3 4 4 3 3 3 3 2 1 1 1 2 2 2 1 1 2 3 3 4 6 6 7 7 8 8 9 9 9 9 9 9 9 9 9 9 9 9
1 1 3 3 4 4 4 4 3 3 3 3 3 2 2 1 1 2 2 3 1 2 3 3 3 5 6 7 8 9 9 9 10 10 9 9 8 8 8 9 9 10 10
1 2 3 4 4 4 4 4 3 3 3 3 3 3 2 2 2 1 2 2 3 1 2 3 3 3 5 6 7 8 8 9 10 10 10 9 9 9 9 9 9 10 10
2 3 3 3 4 4 4 4 3 3 4 3 2 4 3 2 2 2 2 1 2 3 1 1 2 2 3 4 6 7 8 9 10 10 10 10 10 9 9 9 9 10 10
3 3 3 3 4 3 3 4 3 3 4 3 3 4 3 3 3 2 2 2 2 2 2 1 2 2 2 3 5 7 7 7 8 9 10 10 10 9 9 9 9 9 9
3 3 3 3 3 3 3 4 3 3 4 3 3 3 3 3 3 2 2 3 2 1 2 0 2 2 3 2 3 4 6 6 7 8 9 8 8 8 9 8 8 8 8
3 3 3 3 3 3 3 3 3 3 3 3 3 3 2 3 3 2 2 2 2 2 2 2 1 1 2 2 3 3 5 5 6 7 8 8 7 8 8 8 8 8 8
4 3 3 3 3 3 3 3 3 3 3 3 3 2 2 2 2 2 2 2 2 3 2 2 1 1 2 2 2 2 3 3 4 6 7 7 8 8 8 8 7 7 7
4 4 3 3 3 3 3 3 4 4 3 3 3 2 2 2 2 2 2 2 2 2 2 2 1 1 2 2 2 2 2 3 3 4 4 5 6 6 7 7 7 6 6
4 4 4 3 3 2 3 5 5 4 3 3 2 2 2 3 4 4 4 4 4 3 2 2 0 0 1 1 1 1 1 2 3 3 3 4 4 4 5 6 7 7 6
4 4 3 3 2 2 4 6 6 5 4 3 2 2 2 3 4 4 5 6 5 5 3 3 2 1 1 2 1 1 1 1 2 3 2 3 3 3 5 7 8 7 7
4 4 3 3 3 2 5 6 7 5 4 3 2 2 2 1 2 3 4 4 4 4 3 2 2 1 1 2 2 1 1 1 2 2 1 2 3 4 5 7 8 8 7
4 3 3 4 3 2 5 7 7 4 3 2 2 2 2 1 2 5 5 3 3 3 4 4 4 3 4 3 3 2 2 2 3 3 2 1 2 4 4 4 6 8 8
4 4 3 3 3 3 4 6 8 4 3 2 1 1 2 2 3 5 4 3 1 2 2 4 5 6 5 5 4 2 1 0 1 2 2 1 2 3 3 3 4 7 7
Wind_Direction
86 66 57 56 51 56 59 59 63 65 68 68 67 69 61 53 48 38 32 40 39 35 32 35 44 53 57 60 57 55 51 52 55 64 59 54 49 42 40 40 36 34 32
108 89 72 64 58 63 69 73 70 70 66 67 61 63 58 51 48 42 37 37 38 37 34 39 44 49 49 49 51 55 56 57 58 61 54 47 44 42 38 36 34 32 31
110 104 89 68 63 78 84 79 73 69 68 66 56 54 52 48 47 43 41 41 39 39 39 43 44 47 47 46 49 52 53 53 55 55 48 42 40 43 40 35 32 29 26
112 105 96 80 84 89 85 79 72 72 63 60 53 45 45 46 44 45 47 45 43 42 40 43 46 45 43 42 43 47 50 50 50 49 43 38 37 39 37 36 34 31 26
107 104 95 89 92 84 74 83 71 83 79 68 64 49 40 39 38 47 46 46 46 47 43 40 44 44 42 40 39 42 48 51 48 43 42 44 42 39 34 34 33 32 29
102 100 92 89 92 82 71 76 81 70 75 75 71 57 43 38 40 40 38 42 44 44 43 43 41 40 39 38 35 38 41 45 46 42 40 39 39 37 37 37 34 31 29
102 98 94 85 85 92 97 100 94 80 58 53 71 46 28 37 42 33 32 38 39 41 45 44 41 38 32 31 29 33 34 37 41 44 45 44 44 41 39 37 35 33 29
102 105 98 92 90 100 93 92 101 96 56 40 92 83 32 10 15 24 28 36 32 39 40 38 38 35 31 27 23 26 28 30 34 42 47 46 44 41 38 35 35 35 33
96 102 103 100 98 105 113 109 114 114 110 42 57 122 128 185 341 1 21 30 27 29 26 30 31 31 29 26 22 25 30 28 29 34 41 42 40 38 36 38 37 34 30
87 99 104 101 97 95 108 118 108 112 122 106 50 53 109 151 139 14 355 8 21 25 16 23 21 20 21 23 24 28 32 32 33 32 34 35 37 38 39 38 35 32 29
67 86 97 99 96 92 100 92 91 98 112 131 128 103 78 64 86 132 9 341 5 9 15 20 19 15 14 17 22 30 33 36 38 37 35 35 36 38 37 35 32 29 24
47 65 86 90 95 97 97 97 99 100 99 105 112 122 136 133 141 129 146 325 347 340 1 14 17 11 15 21 27 31 34 37 38 38 38 36 36 34 34 31 27 25 22
70 71 92 96 93 98 102 101 98 93 97 103 109 113 126 145 146 138 131 128 13 337 349 356 4 11 20 28 29 36 36 35 37 38 38 36 36 35 33 30 27 26 25
166 133 111 107 101 100 99 96 91 87 88 93 90 91 89 71 109 137 146 140 72 0 5 341 342 6 20 30 36 39 37 38 35 36 35 34 37 38 38 35 31 28 26
139 115 110 107 103 100 98 98 90 85 90 86 83 79 76 58 68 80 119 143 142 108 330 329 338 347 13 30 32 39 38 37 35 33 31 35 40 42 42 38 35 34 33
113 117 111 109 104 97 97 99 94 89 90 81 87 83 67 56 62 65 88 91 116 147 189 310 310 327 3 29 31 34 33 30 30 30 35 40 44 47 43 39 36 37 37
138 134 128 119 112 107 103 104 101 98 96 84 74 80 65 56 63 54 67 76 79 109 138 317 337 353 18 23 17 21 23 23 21 25 33 42 45 45 41 37 37 35 33
137 133 127 123 118 115 114 118 120 110 108 101 87 81 65 67 57 50 66 67 69 82 132 131 349 3 7 6 13 19 16 18 14 19 27 32 35 38 35 33 34 31 30
133 125 122 122 119 121 120 122 124 118 114 110 103 101 92 90 71 58 67 69 67 69 78 115 2 359 359 12 21 16 16 13 13 18 21 24 27 29 28 27 26 25 25
133 134 129 125 126 121 120 123 121 113 104 94 89 93 97 107 115 105 85 83 86 79 75 83 51 3 356 348 23 12 0 3 2 10 15 19 21 18 13 11 11 13 14
135 132 124 115 119 125 139 137 131 125 117 99 79 75 89 104 105 116 113 117 107 96 86 76 46 12 355 355 345 336 348 339 346 9 5 6 6 4 360 1 2 359 357
126 126 134 135 133 149 152 148 137 128 123 116 97 62 57 60 67 77 89 103 119 126 138 124 94 352 297 297 315 336 342 354 332 350 359 337 357 345 347 353 353 351 349
138 137 142 141 141 154 149 141 138 127 118 118 114 93 70 68 73 79 74 70 63 71 108 146 146 215 243 244 233 324 322 306 281 305 339 321 336 329 335 345 350 353 359
144 147 150 154 143 155 149 142 133 115 104 99 105 115 109 78 97 109 95 71 48 34 53 88 154 221 238 226 201 211 226 302 305 323 353 306 321 320 328 334 347 354 354
147 148 150 152 150 163 149 141 130 116 110 98 87 89 111 111 107 112 103 87 45 11 39 53 51 47 42 45 81 77 47 20 331 319 353 316 305 316 314 318 342 352 350
153 146 140 151 157 163 155 149 140 130 127 117 79 58 83 124 108 113 115 115 82 342 17 31 31 28 31 36 48 71 135 78 312 305 318 324 311 332 320 308 326 338 342
Height
1559 1560 1560 1561 1561 1561 1561 1561 1562 1562 1563 1563 1563 1563 1563 1563 1562 1562 1561 1560 1559 1558 1556 1555 1555 1555 1555 1555 1556 1556 1556 1556 1556 1556 1556 1556 1556 1556 1556 1556 1556 1555 1555
1561 1561 1561 1562 1562 1562 1562 1563 1563 1563 1564 1564 1564 1564 1564 1564 1563 1563 1562 1561 1560 1558 1556 1555 1555 1555 1555 1555 1555 1556 1556 1556 1555 1555 1555 1555 1556 1555 1555 1555 1555 1555 1554
1562 1562 1562 1563 1563 1563 1563 1564 1564 1564 1564 1565 1565 1565 1565 1565 1564 1564 1563 1562 1561 1559 1558 1556 1556 1556 1556 1556 1556 1556 1556 1556 1556 1556 1555 1555 1555 1555 1555 1555 1554 1554 1554
1562 1563 1563 1563 1564 1564 1564 1565 1565 1565 1565 1566 1566 1566 1566 1566 1565 1565 1564 1563 1562 1561 1559 1558 1557 1557 1556 1556 1556 1556 1556 1556 1556 1556 1555 1555 1555 1555 1554 1554 1554 1553 1553
1563 1564 1564 1564 1565 1565 1565 1565 1566 1566 1566 1567 1567 1567 1567 1567 1566 1566 1565 1565 1564 1562 1561 1560 1558 1558 1557 1556 1556 1556 1556 1555 1555 1555 1555 1555 1555 1554 1554 1554 1553 1553 1552
1564 1564 1565 1565 1565 1566 1566 1566 1566 1567 1567 1567 1567 1567 1567 1568 1567 1567 1566 1566 1565 1564 1563 1561 1560 1559 1558 1557 1557 1556 1556 1556 1555 1555 1555 1555 1554 1554 1553 1553 1552 1552 1551
1565 1565 1565 1566 1566 1566 1567 1567 1567 1567 1568 1568 1568 1568 1568 1568 1568 1568 1567 1567 1566 1565 1564 1563 1562 1560 1559 1558 1557 1557 1556 1556 1555 1555 1554 1554 1554 1553 1553 1552 1551 1551 1550
1565 1566 1566 1566 1567 1567 1567 1568 1568 1568 1568 1569 1569 1569 1569 1570 1569 1569 1568 1568 1567 1566 1565 1564 1563 1561 1560 1559 1558 1557 1556 1556 1555 1555 1554 1554 1553 1553 1552 1552 1551 1550 1549
1566 1566 1567 1567 1567 1568 1568 1568 1569 1569 1569 1569 1570 1570 1570 1569 1569 1570 1569 1568 1568 1567 1566 1565 1563 1562 1560 1559 1558 1557 1556 1555 1555 1554 1554 1553 1553 1552 1552 1551 1550 1549 1548
1566 1567 1567 1568 1568 1568 1569 1569 1569 1569 1570 1570 1570 1570 1570 1570 1570 1570 1570 1569 1568 1567 1566 1565 1563 1562 1560 1558 1557 1556 1555 1555 1554 1554 1553 1552 1552 1551 1551 1550 1549 1548 1547
1566 1567 1567 1568 1568 1569 1569 1569 1570 1570 1570 1570 1570 1570 1570 1570 1570 1570 1569 1569 1568 1567 1566 1565 1563 1561 1559 1557 1556 1555 1555 1554 1554 1553 1552 1552 1551 1550 1550 1549 1548 1547 1546
1566 1567 1568 1568 1569 1569 1569 1569 1570 1570 1570 1570 1570 1570 1570 1570 1570 1569 1569 1568 1568 1567 1566 1565 1563 1560 1557 1555 1554 1554 1554 1554 1554 1553 1552 1551 1550 1549 1549 1548 1547 1546 1545
1566 1567 1568 1568 1569 1569 1569 1570 1570 1570 1570 1570 1570 1570 1570 1570 1570 1569 1569 1568 1568 1567 1566 1565 1563 1560 1557 1555 1554 1554 1554 1554 1553 1552 1551 1550 1549 1548 1547 1547 1546 1545 1544
1566 1567 1568 1568 1569 1569 1569 1570 1570 1570 1570 1570 1570 1570 1570 1570 1570 1569 1569 1568 1568 1567 1566 1566 1564 1562 1559 1557 1556 1555 1555 1554 1553 1551 1550 1548 1547 1546 1546 1546 1545 1544 1542
1566 1567 1568 1568 1569 1569 1569 1570 1570 1570 1569 1570 1570 1569 1569 1569 1569 1569 1569 1569 1569 1567 1566 1566 1565 1563 1561 1559 1558 1557 1556 1555 1553 1551 1548 1545 1544 1544 1545 1544 1544 1543 1541
1566 1566 1567 1568 1568 1569 1569 1570 1570 1569 1569 1569 1569 1569 1569 1569 1569 1569 1569 1568 1568 1568 1567 1566 1565 1564 1562 1561 1559 1558 1556 1555 1553 1550 1547 1544 1543 1543 1544 1544 1543 1542 1541
1565 1566 1567 1568 1568 1569 1569 1570 1569 1569 1569 1569 1569 1569 1569 1569 1569 1569 1568 1568 1568 1567 1566 1566 1565 1564 1563 1561 1560 1558 1557 1555 1553 1551 1549 1546 1545 1544 1544 1544 1543 1542 1541
1565 1566 1567 1567 1568 1569 1569 1569 1569 1570 1570 1569 1569 1569 1569 1569 1569 1569 1568 1568 1567 1567 1566 1565 1564 1564 1562 1561 1560 1559 1557 1556 1554 1552 1550 1548 1547 1546 1545 1544 1543 1541 1540
1564 1565 1566 1567 1568 1569 1569 1569 1570 1570 1570 1570 1570 1569 1569 1569 1569 1569 1568 1568 1567 1567 1566 1565 1564 1563 1562 1561 1559 1558 1557 1556 1554 1552 1551 1549 1548 1546 1545 1544 1542 1541 1539
1564 1565 1566 1567 1568 1568 1569 1569 1569 1570 1570 1570 1570 1569 1569 1569 1569 1568 1568 1567 1567 1566 1565 1564 1563 1562 1561 1560 1559 1557 1556 1555 1553 1552 1550 1549 1547 1546 1545 1543 1541 1540 1538
1563 1564 1565 1567 1567 1568 1568 1569 1569 1569 1570 1569 1569 1569 1569 1569 1568 1568 1567 1567 1566 1565 1564 1563 1562 1561 1560 1559 1558 1556 1554 1553 1552 1550 1549 1548 1546 1545 1543 1541 1540 1538 1537
1562 1563 1565 1566 1566 1567 1568 1568 1568 1569 1569 1569 1568 1568 1568 1568 1568 1568 1567 1566 1566 1565 1564 1563 1562 1560 1559 1558 1557 1555 1554 1552 1550 1550 1547 1546 1544 1542 1541 1539 1538 1536 1534
1560 1562 1563 1565 1565 1566 1567 1567 1567 1568 1568 1568 1568 1568 1568 1568 1567 1567 1566 1566 1565 1564 1563 1563 1561 1560 1558 1557 1556 1554 1553 1551 1549 1548 1546 1543 1542 1540 1539 1537 1535 1534 1532
1559 1560 1562 1563 1564 1565 1566 1566 1567 1567 1567 1567 1567 1567 1567 1567 1566 1566 1566 1565 1564 1563 1562 1561 1560 1559 1557 1556 1555 1553 1552 1550 1548 1546 1544 1542 1540 1538 1537 1535 1534 1532 1530
1557 1559 1560 1562 1563 1564 1564 1565 1565 1566 1566 1566 1566 1566 1566 1566 1566 1565 1565 1564 1563 1562 1561 1560 1559 1558 1556 1555 1553 1552 1550 1548 1546 1544 1542 1540 1538 1536 1534 1533 1531 1530 1528
1555 1557 1558 1560 1561 1562 1563 1563 1564 1564 1564 1564 1564 1564 1564 1564 1564 1564 1563 1562 1561 1561 1560 1558 1557 1556 1555 1553 1552 1550 1548 1546 1544 1542 1540 1539 1536 1534 1531 1530 1529 1527 1525